CW1532 New London CT US current weather conditions

sailwx.info

Wind from 086 at 4 knots gusting 9

Air temperature 5.0° C
Dewpoint 2.9° C

Last reported at 2020-Jan-25 12:03 UTC.
Time now 2020-Jan-25 12:19 UTC

Location: N 41°21' W 072°08'.
View on Google Maps.

See reports from other nearby stations

  
Tides and Currents Weather Stations Pressure Air Temp Water Temp Dewpoint Dewpoint Depression Visibility Wind Speed Wind Dir Waves Ship Positions
date/time (UTC)wind fromknots sea level pressurealtimeterstation pressurevisibilityair tempwater tempwave heightnotes
2020-Jan-25 12:03 086 4 gusting 9 5.0
2020-Jan-25 11:58 035 3 gusting 7 5.0
2020-Jan-25 11:53 024 3 gusting 8 5.0
2020-Jan-25 11:48 051 4 gusting 8 5.0
2020-Jan-25 11:43 090 3 gusting 10 5.0
2020-Jan-25 11:38 030 4 gusting 10 5.0
2020-Jan-25 11:33 042 4 gusting 8 5.0
2020-Jan-25 11:28 040 4 gusting 8 5.0
2020-Jan-25 11:23 355 1 gusting 8 4.4
2020-Jan-25 11:18 071 4 gusting 10 4.4
2020-Jan-25 11:13 053 5 gusting 10 4.4
2020-Jan-25 11:08 052 2 gusting 10 4.4
2020-Jan-25 11:03 039 2 gusting 9 4.4
2020-Jan-25 10:58 052 5 gusting 13 4.4
2020-Jan-25 10:53 051 4 gusting 13 4.4
2020-Jan-25 10:48 037 4 gusting 8 4.4
2020-Jan-25 10:43 045 2 gusting 5 4.4
2020-Jan-25 10:38 034 2 gusting 9 4.4
2020-Jan-25 10:33 033 2 gusting 7 4.4
2020-Jan-25 10:28 044 3 gusting 7 4.4
2020-Jan-25 10:23 028 3 gusting 10 4.4
2020-Jan-25 10:18 035 3 gusting 10 4.4
2020-Jan-25 10:13 053 4 gusting 10 4.4
2020-Jan-25 10:08 077 5 gusting 10 4.4
2020-Jan-25 10:03 098 6 gusting 10 3.9
2020-Jan-25 09:58 034 3 gusting 10 3.9
2020-Jan-25 09:53 015 1 gusting 11 3.9
2020-Jan-25 09:50 046 3 gusting 12 3.9
2020-Jan-25 09:43 044 6 gusting 12 3.9
2020-Jan-25 09:38 070 3 gusting 12 3.9
2020-Jan-25 09:33 017 5 gusting 12 3.9
2020-Jan-25 09:28 028 3 gusting 9 3.9
2020-Jan-25 09:23 057 3 gusting 9 3.9
2020-Jan-25 09:18 121 3 gusting 7 3.9
2020-Jan-25 09:13 046 1 gusting 7 3.9
2020-Jan-25 09:08 045 1 gusting 6 3.9
2020-Jan-25 09:03 036 0 gusting 10 3.9
2020-Jan-25 08:58 067 4 gusting 8 3.9
2020-Jan-25 08:53 044 3 gusting 9 3.3
2020-Jan-25 08:48 068 1 gusting 10 3.9
2020-Jan-25 08:43 071 3 gusting 12 3.3
2020-Jan-25 08:38 050 1 gusting 12 3.3
2020-Jan-25 08:34 058 3 gusting 8 3.3
2020-Jan-25 08:28 106 2 gusting 7 3.3
2020-Jan-25 08:23 081 3 gusting 12 3.9
2020-Jan-25 08:18 098 2 gusting 12 3.9
2020-Jan-25 08:13 042 3 gusting 8 3.9
2020-Jan-25 08:09 059 4 gusting 7 3.3
2020-Jan-25 08:03 037 2 gusting 8 3.9
2020-Jan-25 07:58 042 0 gusting 8 3.9
2020-Jan-25 07:53 063 2 gusting 8 3.3
2020-Jan-25 07:48 035 1 gusting 8 3.3
2020-Jan-25 07:38 138 3 gusting 7 3.3
2020-Jan-25 07:33 038 1 gusting 6 3.3
2020-Jan-25 07:28 040 1 gusting 7 3.3
2020-Jan-25 07:23 036 3 gusting 7 3.3
2020-Jan-25 07:18 044 0 gusting 4 3.3
2020-Jan-25 07:15 070 0 gusting 4 3.3
2020-Jan-25 07:08 050 3.3
2020-Jan-25 07:03 037 1 gusting 8 3.3
2020-Jan-25 06:58 042 3 gusting 8 3.3
2020-Jan-25 06:53 076 1 gusting 8 3.3
2020-Jan-25 06:48 005 2 gusting 8 3.3
2020-Jan-25 06:43 055 3 gusting 6 3.3
2020-Jan-25 06:38 052 2 gusting 6 3.3
2020-Jan-25 06:33 042 2 gusting 5 3.3
2020-Jan-25 06:28 042 1 gusting 4 3.3
2020-Jan-25 06:23 037 0 gusting 5 3.3
2020-Jan-25 06:18 047 2 gusting 5 3.3
2020-Jan-25 06:13 071 1 gusting 4 3.3
2020-Jan-25 06:08 057 0 gusting 3 3.3
2020-Jan-25 06:03 039 3.3
2020-Jan-25 05:58 100 0 gusting 4 3.3
2020-Jan-25 05:53 019 1 gusting 7 3.3
2020-Jan-25 05:48 044 2 gusting 4 3.3
2020-Jan-25 05:43 042 1 gusting 4 3.3
2020-Jan-25 05:38 051 0 gusting 3 3.3
2020-Jan-25 05:33 051 0 gusting 5 3.3
2020-Jan-25 05:28 053 2 gusting 7 3.3
2020-Jan-25 05:23 046 0 gusting 7 3.3
2020-Jan-25 05:18 046 2 gusting 6 3.3
2020-Jan-25 05:13 039 0 gusting 6 3.3
2020-Jan-25 05:08 076 2 gusting 6 3.3
2020-Jan-25 05:03 032 2 gusting 6 3.3
2020-Jan-25 04:58 092 2 gusting 7 3.3
2020-Jan-25 04:53 057 3 gusting 7 3.3
2020-Jan-25 04:48 062 1 gusting 7 3.3
2020-Jan-25 04:43 055 2 gusting 7 3.3
2020-Jan-25 04:38 071 1 gusting 5 3.3
2020-Jan-25 04:33 052 1 gusting 7 3.3
2020-Jan-25 04:28 061 2 gusting 8 3.3
2020-Jan-25 04:23 046 2 gusting 8 3.3
2020-Jan-25 04:18 043 2 gusting 9 3.3
2020-Jan-25 04:13 072 4 gusting 9 3.3
2020-Jan-25 04:08 028 3 gusting 8 3.3
2020-Jan-25 04:03 038 4 gusting 8 3.3
2020-Jan-25 03:58 046 1 gusting 7 3.3
2020-Jan-25 03:53 030 1 gusting 6 2.8
2020-Jan-25 03:48 022 2 gusting 6 2.8
2020-Jan-25 03:43 082 2 gusting 6 2.8
2020-Jan-25 03:38 043 1 gusting 3 2.8
2020-Jan-25 03:33 118 0 gusting 4 2.8
2020-Jan-25 03:28 052 0 gusting 5 2.8
2020-Jan-25 03:23 036 2 gusting 5 2.8
2020-Jan-25 03:18 041 0 gusting 2 2.8
2020-Jan-25 03:13 036 0 gusting 4 2.8
2020-Jan-25 03:08 046 1 gusting 4 2.8
2020-Jan-25 03:03 029 0 gusting 3 3.3
2020-Jan-25 02:58 038 3.3
2020-Jan-25 02:53 042 0 gusting 3 3.3
2020-Jan-25 02:48 042 0 gusting 2 3.3
2020-Jan-25 02:43 040 3.3
2020-Jan-25 02:38 040 3.3
2020-Jan-25 02:33 040 3.3
2020-Jan-25 02:28 040 3.3
2020-Jan-25 02:23 040 0 gusting 3 3.3
2020-Jan-25 02:18 042 3.3
2020-Jan-25 02:13 042 3.3
2020-Jan-25 02:08 042 3.3
2020-Jan-25 02:03 042 0 gusting 2 3.9
2020-Jan-25 01:58 042 0 gusting 4 3.9
2020-Jan-25 01:53 069 0 gusting 4 3.9
2020-Jan-25 01:48 055 2 gusting 4 3.9
2020-Jan-25 01:43 064 0 gusting 3 3.9
2020-Jan-25 01:38 037 3.9
2020-Jan-25 01:33 042 3.9
2020-Jan-25 01:28 050 0 gusting 5 3.9
2020-Jan-25 01:23 042 1 gusting 5 3.9
2020-Jan-25 01:18 046 1 gusting 4 3.9
2020-Jan-25 01:15 052 3.9
2020-Jan-25 01:08 057 0 gusting 4 3.9
2020-Jan-25 01:03 059 0 gusting 4 3.9
2020-Jan-25 00:58 042 0 gusting 1 3.9
2020-Jan-25 00:53 042 4.4
2020-Jan-25 00:48 042 4.4
2020-Jan-25 00:43 042 4.4
2020-Jan-25 00:38 042 4.4
2020-Jan-25 00:33 042 4.4
2020-Jan-25 00:28 042 0 gusting 2 4.4
2020-Jan-25 00:23 042 5.0
2020-Jan-25 00:18 046 0 gusting 3 5.0
2020-Jan-25 00:13 067 5.0
2020-Jan-25 00:08 046 0 gusting 2 5.0
2020-Jan-25 00:03 044 5.0
2020-Jan-24 23:58 043 0 gusting 3 5.0
2020-Jan-24 23:53 090 0 gusting 4 5.0
2020-Jan-24 23:48 059 0 gusting 4 5.0
2020-Jan-24 23:43 036 0 gusting 4 5.0
2020-Jan-24 23:38 053 0 gusting 4 5.0
2020-Jan-24 23:33 085 0 gusting 4 5.0
2020-Jan-24 23:28 111 5.0
2020-Jan-24 23:23 067 0 gusting 5 5.0
2020-Jan-24 23:18 111 0 gusting 5 5.0
2020-Jan-24 23:13 074 0 gusting 3 5.0
2020-Jan-24 23:08 107 0 gusting 3 5.0
2020-Jan-24 23:03 101 5.0
2020-Jan-24 22:58 071 0 gusting 2 5.0
2020-Jan-24 22:53 105 0 gusting 2 5.6
2020-Jan-24 22:48 077 5.6
2020-Jan-24 22:43 110 1 gusting 5 5.6
2020-Jan-24 22:38 103 0 gusting 6 5.6
2020-Jan-24 22:33 094 0 gusting 6 5.6
2020-Jan-24 22:28 113 1 gusting 6 5.6
2020-Jan-24 22:23 115 1 gusting 7 5.6
2020-Jan-24 22:18 098 0 gusting 6 6.1
2020-Jan-24 22:13 105 1 gusting 6 6.1
2020-Jan-24 22:08 099 2 gusting 6 6.1
2020-Jan-24 22:03 090 1 gusting 5 6.7
2020-Jan-24 21:58 163 6.7
2020-Jan-24 21:53 163 6.7
2020-Jan-24 21:48 163 6.7
2020-Jan-24 21:43 163 7.2
2020-Jan-24 21:38 163 7.2
2020-Jan-24 21:33 175 7.2
2020-Jan-24 21:28 175 7.2
2020-Jan-24 21:23 114 7.2
2020-Jan-24 21:18 114 7.2
2020-Jan-24 21:13 098 0 gusting 2 7.2
2020-Jan-24 21:08 113 1 gusting 2 7.2
2020-Jan-24 21:03 120 0 gusting 4 7.8
2020-Jan-24 20:58 107 0 gusting 3 7.8
2020-Jan-24 20:53 125 0 gusting 3 7.8
2020-Jan-24 20:48 117 0 gusting 5 8.3
2020-Jan-24 20:43 131 1 gusting 5 8.3
2020-Jan-24 20:38 131 0 gusting 5 8.3
2020-Jan-24 20:33 097 2 gusting 5 8.3
2020-Jan-24 20:28 106 2 gusting 6 8.9
2020-Jan-24 20:23 128 2 gusting 6 8.9
2020-Jan-24 20:18 141 3 gusting 5 8.9
2020-Jan-24 20:13 152 2 gusting 5 8.9
2020-Jan-24 20:08 126 0 gusting 6 9.4
2020-Jan-24 20:03 156 1 gusting 6 9.4
2020-Jan-24 20:00 119 1 gusting 6 8.9
2020-Jan-24 19:53 161 2 gusting 6 9.4
2020-Jan-24 19:48 171 2 gusting 5 10.0
2020-Jan-24 19:43 153 3 gusting 5 10.0
2020-Jan-24 19:38 126 0 gusting 6 10.0
2020-Jan-24 19:33 104 1 gusting 6 10.0
2020-Jan-24 19:28 116 2 gusting 6 10.0
2020-Jan-24 19:23 134 2 gusting 4 10.0
2020-Jan-24 19:18 155 1 gusting 4 10.0
2020-Jan-24 19:13 141 1 gusting 4 10.6
2020-Jan-24 19:08 175 1 gusting 5 10.6
2020-Jan-24 19:03 184 3 gusting 4 10.6
2020-Jan-24 18:58 194 1 gusting 4 10.6
2020-Jan-24 18:53 136 0 gusting 4 10.6
2020-Jan-24 18:48 121 0 gusting 5 11.1
2020-Jan-24 18:45 159 2 gusting 5 10.6
2020-Jan-24 18:38 084 0 gusting 3 11.1
2020-Jan-24 18:33 105 11.1
2020-Jan-24 18:28 053 1 gusting 7 11.1
2020-Jan-24 18:23 053 2 gusting 7 11.1
2020-Jan-24 18:18 035 3 gusting 5 11.1
2020-Jan-24 18:13 053 2 gusting 5 11.1
2020-Jan-24 18:08 051 3 gusting 5 10.6
2020-Jan-24 18:03 106 1 gusting 4 10.6
2020-Jan-24 17:58 022 2 gusting 5 10.6
2020-Jan-24 17:53 032 2 gusting 5 10.6
2020-Jan-24 17:48 025 3 gusting 6 10.0
2020-Jan-24 17:43 005 0 gusting 7 10.0
2020-Jan-24 17:38 031 3 gusting 7 10.0
2020-Jan-24 17:33 044 3 gusting 5 10.0
2020-Jan-24 17:30 051 2 gusting 5 10.0
2020-Jan-24 17:23 055 2 gusting 5 10.0
2020-Jan-24 17:18 059 3 gusting 5 9.4
2020-Jan-24 17:13 046 3 gusting 5 9.4
2020-Jan-24 17:08 070 0 gusting 3 9.4
2020-Jan-24 17:03 030 1 gusting 5 9.4
2020-Jan-24 16:58 051 0 gusting 5 8.9
2020-Jan-24 16:53 010 3 gusting 5 8.9
2020-Jan-24 16:48 083 1 gusting 4 8.9
2020-Jan-24 16:43 355 0 gusting 4 8.9
2020-Jan-24 16:38 042 2 gusting 4 8.3
2020-Jan-24 16:33 055 2 gusting 6 8.3
2020-Jan-24 16:28 355 1 gusting 6 8.3
2020-Jan-24 16:23 059 1 gusting 6 8.3
2020-Jan-24 16:18 071 1 gusting 7 7.8
2020-Jan-24 16:13 046 3 gusting 6 7.8
2020-Jan-24 16:08 042 1 gusting 4 7.8
2020-Jan-24 16:03 059 2 gusting 4 7.8
2020-Jan-24 15:58 056 3 gusting 4 7.8
2020-Jan-24 15:53 047 1 gusting 3 7.8
2020-Jan-24 15:48 061 1 gusting 4 7.2
2020-Jan-24 15:43 055 1 gusting 4 7.2
2020-Jan-24 15:38 080 1 gusting 4 7.2
2020-Jan-24 15:33 068 2 gusting 5 7.2
2020-Jan-24 15:28 059 2 gusting 5 6.7
2020-Jan-24 15:23 055 2 gusting 5 6.7
2020-Jan-24 15:18 030 3 gusting 5 6.1
2020-Jan-24 15:13 057 2 gusting 5 6.1
2020-Jan-24 15:08 061 3 gusting 5 5.6
2020-Jan-24 15:03 069 2 gusting 5 5.6
2020-Jan-24 14:58 036 1 gusting 5 5.6
2020-Jan-24 14:53 005 1 gusting 5 5.6
2020-Jan-24 14:48 005 1 gusting 6 5.6
2020-Jan-24 14:43 005 1 gusting 4 5.6
2020-Jan-24 14:38 048 0 gusting 4 5.0
2020-Jan-24 14:33 355 1 gusting 5 5.0
2020-Jan-24 14:28 047 2 gusting 7 4.4
2020-Jan-24 14:23 033 3 gusting 7 4.4
2020-Jan-24 14:18 042 2 gusting 4 4.4
2020-Jan-24 14:15 028 3.9
2020-Jan-24 14:08 037 3.3
2020-Jan-24 14:03 036 2.8
2020-Jan-24 13:58 036 2.2
2020-Jan-24 13:53 036 1.7
2020-Jan-24 13:48 036 1.1
2020-Jan-24 13:43 036 1.1
2020-Jan-24 13:38 036 1.1
2020-Jan-24 13:33 034 0 gusting 4 0.6
2020-Jan-24 13:28 211 -0.0
2020-Jan-24 13:23 211 -0.0
2020-Jan-24 13:18 211 -0.6
2020-Jan-24 13:13 211 -1.1
2020-Jan-24 13:08 211 -1.1
2020-Jan-24 13:03 211 -1.1
2020-Jan-24 12:58 211 -1.1
2020-Jan-24 12:53 211 -1.1
2020-Jan-24 12:48 211 -1.1
2020-Jan-24 12:43 211 -1.1
2020-Jan-24 12:38 211 -1.7
2020-Jan-24 12:33 212 -2.2
2020-Jan-24 12:28 212 -1.7
2020-Jan-24 12:23 212 -1.7
2020-Jan-24 12:18 212 -1.7
2020-Jan-24 12:13 212 -1.7
2020-Jan-24 12:08 212 -1.7
2020-Jan-24 12:03 212 -1.7
2020-Jan-24 11:58 212 -1.7
2020-Jan-24 11:53 212 -1.7
2020-Jan-24 11:50 212 -1.7
2020-Jan-24 11:43 212 -1.7
2020-Jan-24 11:38 212 -2.2
2020-Jan-24 11:33 212 -2.8
2020-Jan-24 11:28 212 -2.8
2020-Jan-24 11:23 212 -2.8
2020-Jan-24 11:18 212 -2.8
2020-Jan-24 11:13 212 -2.8
2020-Jan-24 11:08 212 -2.2
2020-Jan-24 11:03 212 -2.2
2020-Jan-24 11:00 212 -2.8
2020-Jan-24 10:53 212 -2.2
2020-Jan-24 10:48 212 -2.2
2020-Jan-24 10:43 212 -2.2
2020-Jan-24 10:38 212 -2.2
2020-Jan-24 10:33 212 -2.2
2020-Jan-24 10:28 212 -2.2
2020-Jan-24 10:23 212 -1.7
2020-Jan-24 10:18 212 -1.7
2020-Jan-24 10:13 212 -1.7
2020-Jan-24 10:08 212 -1.7
2020-Jan-24 10:03 212 -1.7
2020-Jan-24 09:58 212 -1.7
2020-Jan-24 09:53 212 -1.7
2020-Jan-24 09:48 212 -1.7
2020-Jan-24 09:43 212 -1.7
2020-Jan-24 09:38 212 -1.7
2020-Jan-24 09:33 212 -1.7
2020-Jan-24 09:28 212 -1.1
2020-Jan-24 09:23 212 -1.1
2020-Jan-24 09:18 212 -1.1
2020-Jan-24 09:13 212 -1.1
2020-Jan-24 09:08 212 -1.1
2020-Jan-24 09:03 212 -1.1
2020-Jan-24 09:00 212 -1.1
2020-Jan-24 08:53 212 -1.1
2020-Jan-24 08:48 212 -1.1
2020-Jan-24 08:43 212 -1.1
2020-Jan-24 08:38 212 -1.1
2020-Jan-24 08:33 212 -1.1
2020-Jan-24 08:28 212 -1.1
2020-Jan-24 08:23 212 -1.1
2020-Jan-24 08:18 212 -1.1
2020-Jan-24 08:13 212 -1.1
2020-Jan-24 08:08 212 -1.1
2020-Jan-24 08:03 212 -0.6
2020-Jan-24 07:58 212 -0.6
2020-Jan-24 07:53 212 -0.6
2020-Jan-24 07:48 212 -0.6
2020-Jan-24 07:43 212 -0.6
2020-Jan-24 07:38 212 -0.6
2020-Jan-24 07:33 212 -1.1
2020-Jan-24 07:28 212 -1.1
2020-Jan-24 07:23 212 -1.1
2020-Jan-24 07:18 212 -1.1
2020-Jan-24 07:15 212 -1.7
2020-Jan-24 07:08 212 -1.1
2020-Jan-24 07:03 212 -1.1
2020-Jan-24 06:58 212 -1.1
2020-Jan-24 06:53 212 -1.1
2020-Jan-24 06:48 212 -1.1
2020-Jan-24 06:43 212 -1.1
2020-Jan-24 06:38 212 -1.1
2020-Jan-24 06:33 212 -1.1
2020-Jan-24 06:28 212 -1.1
2020-Jan-24 06:23 212 -1.1
2020-Jan-24 06:18 212 -1.1
2020-Jan-24 06:13 212 -1.1
2020-Jan-24 06:08 212 -1.1
2020-Jan-24 06:03 212 -1.1
2020-Jan-24 05:58 212 -1.1
2020-Jan-24 05:53 212 -1.1
2020-Jan-24 05:48 212 -1.1
2020-Jan-24 05:43 212 -1.1
2020-Jan-24 05:38 212 -1.1
2020-Jan-24 05:33 212 -1.1
2020-Jan-24 05:28 212 -1.1
2020-Jan-24 05:23 212 -1.1
2020-Jan-24 05:18 212 -1.1
2020-Jan-24 05:13 212 -1.1
2020-Jan-24 05:08 212 -1.1
2020-Jan-24 05:03 212 -1.1
2020-Jan-24 04:58 212 -1.1
2020-Jan-24 04:53 212 -1.1
2020-Jan-24 04:48 212 -1.1
2020-Jan-24 04:43 212 -1.1
2020-Jan-24 04:38 212 -1.1
2020-Jan-24 04:33 212 -1.1
2020-Jan-24 04:28 212 -1.1
2020-Jan-24 04:23 212 -0.6
2020-Jan-24 04:18 212 -1.1
2020-Jan-24 04:13 212 -1.1
2020-Jan-24 04:08 212 -1.1
2020-Jan-24 04:03 212 -1.1
2020-Jan-24 03:58 212 -1.1
2020-Jan-24 03:53 212 -1.1
2020-Jan-24 03:48 212 -0.6
2020-Jan-24 03:43 212 -0.6
2020-Jan-24 03:38 212 -0.6
2020-Jan-24 03:33 212 -0.6
2020-Jan-24 03:30 212 -1.1
2020-Jan-24 03:23 212 -1.1
2020-Jan-24 03:18 212 -1.1
2020-Jan-24 03:13 212 -0.6
2020-Jan-24 03:08 212 -0.6
2020-Jan-24 03:03 212 -0.6
2020-Jan-24 02:58 212 -0.6
2020-Jan-24 02:53 212 -0.6
2020-Jan-24 02:48 212 -0.6
2020-Jan-24 02:43 212 -0.6
2020-Jan-24 02:38 212 -0.6
2020-Jan-24 02:33 212 -0.6
2020-Jan-24 02:28 212 -0.6
2020-Jan-24 02:23 212 -0.6
2020-Jan-24 02:18 212 -0.6
2020-Jan-24 02:13 212 -0.0
2020-Jan-24 02:08 212 -0.0
2020-Jan-24 02:03 212 -0.0
2020-Jan-24 01:58 212 -0.0
2020-Jan-24 01:53 212 -0.0
2020-Jan-24 01:48 212 -0.0
2020-Jan-24 01:43 212 -0.0
2020-Jan-24 01:38 212 -0.0
2020-Jan-24 01:33 212 -0.6
2020-Jan-24 01:28 212 -0.0
2020-Jan-24 01:23 212 -0.0
2020-Jan-24 01:18 212 -0.0
2020-Jan-24 01:13 212 -0.0
2020-Jan-24 01:08 212 -0.0
2020-Jan-24 01:03 212 -0.0
2020-Jan-24 00:58 212 -0.0
2020-Jan-24 00:53 212 -0.0
2020-Jan-24 00:48 212 -0.0
2020-Jan-24 00:43 212 -0.0
2020-Jan-24 00:38 212 0.6
2020-Jan-24 00:33 212 0.6
2020-Jan-24 00:30 212 0.6
2020-Jan-24 00:23 212 1.1
2020-Jan-24 00:18 212 1.1
2020-Jan-24 00:13 212 1.1
2020-Jan-24 00:08 212 1.1
2020-Jan-24 00:03 212 1.7
2020-Jan-23 23:58 212 1.7
2020-Jan-23 23:53 212 1.7
2020-Jan-23 23:48 212 1.1
2020-Jan-23 23:43 212 1.1
2020-Jan-23 23:38 212 1.1
2020-Jan-23 23:33 212 1.7
2020-Jan-23 23:28 212 1.7
2020-Jan-23 23:23 212 2.2
2020-Jan-23 23:18 212 2.2
2020-Jan-23 23:13 212 2.8
2020-Jan-23 23:08 212 2.8
2020-Jan-23 23:03 212 3.3
2020-Jan-23 22:58 212 3.3
2020-Jan-23 22:53 212 3.3
2020-Jan-23 22:48 212 3.3
2020-Jan-23 22:43 212 3.3
2020-Jan-23 22:38 212 3.3
2020-Jan-23 22:33 212 3.9
2020-Jan-23 22:30 212 3.3
2020-Jan-23 22:23 210 3.9
2020-Jan-23 22:18 210 0 gusting 3 3.9
2020-Jan-23 22:13 227 3.9
2020-Jan-23 22:08 227 3.9
2020-Jan-23 22:03 227 3.9
2020-Jan-23 21:58 259 3.9
2020-Jan-23 21:53 259 4.4
2020-Jan-23 21:48 259 4.4
2020-Jan-23 21:43 259 4.4
2020-Jan-23 21:38 259 4.4
2020-Jan-23 21:33 259 5.0
2020-Jan-23 21:28 259 5.0
2020-Jan-23 21:23 259 5.0
2020-Jan-23 21:18 259 5.0
2020-Jan-23 21:13 259 0 gusting 5 5.0
2020-Jan-23 21:08 236 0 gusting 4 5.0
2020-Jan-23 21:03 259 1 gusting 4 5.0
2020-Jan-23 20:58 257 1 gusting 4 5.0
2020-Jan-23 20:53 231 1 gusting 4 5.0
2020-Jan-23 20:48 237 0 gusting 5 5.0
2020-Jan-23 20:43 236 0 gusting 3 5.6
2020-Jan-23 20:38 235 5.6
2020-Jan-23 20:33 223 0 gusting 4 5.6
2020-Jan-23 20:28 207 0 gusting 4 5.6
2020-Jan-23 20:23 242 1 gusting 4 5.6
2020-Jan-23 20:18 240 2 gusting 6 5.6
2020-Jan-23 20:13 202 1 gusting 6 5.6
2020-Jan-23 20:08 227 2 gusting 6 5.6
2020-Jan-23 20:03 247 1 gusting 8 5.6
2020-Jan-23 19:58 214 2 gusting 8 5.6
2020-Jan-23 19:45 226 2 gusting 6 5.6
2020-Jan-23 19:32 173 1 gusting 7 5.6
2020-Jan-23 19:28 238 2 gusting 7 6.1
2020-Jan-23 19:23 269 3 gusting 7 5.6
2020-Jan-23 19:18 267 2 gusting 6 6.1
2020-Jan-23 19:13 216 3 gusting 6 6.1
2020-Jan-23 19:08 233 1 gusting 6 5.6
2020-Jan-23 19:03 184 3 gusting 7 5.6
2020-Jan-23 18:58 227 3 gusting 7 5.6
2020-Jan-23 18:53 214 3 gusting 7 6.1
2020-Jan-23 18:48 197 2 gusting 7 5.6
2020-Jan-23 18:43 250 3 gusting 7 6.1
2020-Jan-23 18:38 211 2 gusting 6 6.1
2020-Jan-23 18:33 214 2 gusting 9 6.7
2020-Jan-23 18:28 213 4 gusting 9 6.7
2020-Jan-23 18:23 225 1 gusting 10 6.7
2020-Jan-23 18:18 256 6 gusting 10 6.7
2020-Jan-23 18:13 243 3 gusting 7 6.7
2020-Jan-23 18:08 243 2 gusting 7 6.7
2020-Jan-23 18:03 246 4 gusting 9 6.1
2020-Jan-23 17:58 268 5 gusting 9 6.1
2020-Jan-23 17:53 246 2 gusting 6 6.1
2020-Jan-23 17:48 213 2 gusting 6 6.1
2020-Jan-23 17:43 227 2 gusting 7 6.1
2020-Jan-23 17:38 238 0 gusting 7 5.6
2020-Jan-23 17:33 211 3 gusting 6 5.6
2020-Jan-23 17:28 256 5 gusting 9 5.0
2020-Jan-23 17:23 247 5 gusting 9 5.6
2020-Jan-23 17:18 243 2 gusting 8 5.6
2020-Jan-23 17:15 234 3 gusting 8 5.0
2020-Jan-23 17:08 221 4 gusting 8 5.6
2020-Jan-23 17:03 233 5 gusting 8 5.6
2020-Jan-23 16:58 252 3 gusting 10 5.6
2020-Jan-23 16:53 262 3 gusting 9 5.6
2020-Jan-23 16:48 245 3 gusting 8 5.6
2020-Jan-23 16:43 191 3 gusting 8 5.0
2020-Jan-23 16:38 252 2 gusting 8 5.0
2020-Jan-23 16:33 228 5 gusting 7 5.0
2020-Jan-23 16:28 200 2 gusting 6 5.0
2020-Jan-23 16:23 193 3 gusting 7 5.0
2020-Jan-23 16:18 261 6 gusting 7 5.0
2020-Jan-23 16:13 251 1 gusting 5 4.4
2020-Jan-23 16:08 248 1 gusting 6 4.4
2020-Jan-23 16:03 254 2 gusting 5 4.4
2020-Jan-23 15:58 236 2 gusting 5 4.4
2020-Jan-23 15:53 236 2 gusting 6 4.4
2020-Jan-23 15:48 237 2 gusting 5 3.9
2020-Jan-23 15:43 242 3 gusting 6 3.9
2020-Jan-23 15:38 210 1 gusting 7 3.9
2020-Jan-23 15:33 265 2 gusting 7 3.9
2020-Jan-23 15:28 278 0 gusting 6 3.9
2020-Jan-23 15:23 240 2 gusting 5 3.3
2020-Jan-23 15:18 286 2 gusting 5 3.3
2020-Jan-23 15:13 242 0 gusting 5 3.3
2020-Jan-23 15:08 280 1 gusting 5 2.8
2020-Jan-23 15:03 260 2.8
2020-Jan-23 14:58 182 2.8
2020-Jan-23 14:53 182 2.2
2020-Jan-23 14:48 177 1.7
2020-Jan-23 14:43 177 1.1
2020-Jan-23 14:38 177 0.6
2020-Jan-23 14:33 177 -0.0
2020-Jan-23 14:28 177 -0.6
2020-Jan-23 14:23 177 -1.7
2020-Jan-23 14:18 177 -2.2
2020-Jan-23 14:13 177 -2.2
2020-Jan-23 14:08 177 -2.8
2020-Jan-23 14:03 177 -3.3
2020-Jan-23 13:58 177 -3.9
2020-Jan-23 13:53 177 -4.4
2020-Jan-23 13:48 177 -4.4
2020-Jan-23 13:43 177 -5.0
2020-Jan-23 13:38 177 -5.0
2020-Jan-23 13:33 177 -5.6
2020-Jan-23 13:28 177 -6.1
2020-Jan-23 13:23 177 -6.7
2020-Jan-23 13:18 177 -6.7
2020-Jan-23 13:13 177 -6.7
2020-Jan-23 13:08 177 -7.2
2020-Jan-23 13:03 177 -7.2
2020-Jan-23 12:58 177 -7.8
2020-Jan-23 12:53 177 -7.8
2020-Jan-23 12:48 177 -7.8
2020-Jan-23 12:43 177 -8.3
2020-Jan-23 12:38 177 -8.3
2020-Jan-23 12:33 177 -8.3
2020-Jan-23 12:28 177 -7.8
2020-Jan-23 12:23 177 -7.8
2020-Jan-23 12:18 177 -8.3
2020-Jan-23 12:15 177 -8.3
2020-Jan-23 12:08 177 -8.3
2020-Jan-23 12:03 177 -8.3